Time,TemperatureF,DewpointF,PressureIn,WindDirection,WindDirectionDegrees,WindSpeedMPH,WindSpeedGustMPH,Humidity,HourlyPrecipIn,Conditions,Clouds,dailyrainin,SoftwareType,DateUTC
2013-02-28 00:01:00,21.7,10.4,29.86,ESE,117,1.0,3.0,61,0.00,,,0.00,LWC V2.10 B1813,2013-02-28 09:01:00,
2013-02-28 00:06:00,21.8,10.1,29.86,ESE,117,1.0,1.0,60,0.00,,,0.00,LWC V2.10 B1813,2013-02-28 09:06:00,
2013-02-28 00:11:00,22.1,10.4,29.86,ESE,117,0.0,1.0,60,0.00,,,0.00,LWC V2.10 B1813,2013-02-28 09:11:00,
2013-02-28 00:16:00,22.4,10.6,29.86,ESE,117,1.0,2.0,60,0.00,,,0.00,LWC V2.10 B1813,2013-02-28 09:16:00,
2013-02-28 00:21:00,22.6,10.5,29.86,ESE,115,0.0,2.0,59,0.00,,,0.00,LWC V2.10 B1813,2013-02-28 09:21:00,
2013-02-28 00:26:00,22.6,10.5,29.86,ESE,113,2.0,3.0,59,0.00,,,0.00,LWC V2.10 B1813,2013-02-28 09:26:00,
2013-02-28 00:31:00,22.7,10.6,29.86,East,101,3.0,3.0,59,0.00,,,0.00,LWC V2.10 B1813,2013-02-28 09:31:00,
2013-02-28 00:36:00,23.1,10.5,29.86,ENE,59,4.0,5.0,58,0.00,,,0.00,LWC V2.10 B1813,2013-02-28 09:36:00,
2013-02-28 00:41:00,23.5,10.5,29.86,NE,55,4.0,6.0,57,0.00,,,0.00,LWC V2.10 B1813,2013-02-28 09:41:00,
2013-02-28 00:46:00,23.8,10.4,29.86,ENE,61,5.0,5.0,56,0.00,,,0.00,LWC V2.10 B1813,2013-02-28 09:46:00,
2013-02-28 00:51:00,23.9,10.5,29.86,ENE,61,3.0,5.0,56,0.00,,,0.00,LWC V2.10 B1813,2013-02-28 09:51:00,
2013-02-28 00:56:00,24.2,10.4,29.87,ENE,72,2.0,6.0,55,0.00,,,0.00,LWC V2.10 B1813,2013-02-28 09:56:00,
2013-02-28 01:01:00,24.4,10.6,29.87,ENE,69,3.0,5.0,55,0.00,,,0.00,LWC V2.10 B1813,2013-02-28 10:01:00,
2013-02-28 01:06:00,24.4,10.6,29.87,ENE,63,2.0,5.0,55,0.00,,,0.00,LWC V2.10 B1813,2013-02-28 10:06:00,
2013-02-28 01:11:00,24.5,10.7,29.87,ENE,72,3.0,5.0,55,0.00,,,0.00,LWC V2.10 B1813,2013-02-28 10:11:00,
2013-02-28 01:16:00,24.5,10.3,29.87,ENE,63,4.0,6.0,54,0.00,,,0.00,LWC V2.10 B1813,2013-02-28 10:16:00,
2013-02-28 01:21:00,24.4,10.2,29.87,East,80,3.0,5.0,54,0.00,,,0.00,LWC V2.10 B1813,2013-02-28 10:21:00,
2013-02-28 01:26:00,24.2,10.0,29.87,ENE,76,3.0,5.0,54,0.00,,,0.00,LWC V2.10 B1813,2013-02-28 10:26:00,
2013-02-28 01:31:00,24.0,10.2,29.87,East,84,5.0,5.0,55,0.00,,,0.00,LWC V2.10 B1813,2013-02-28 10:31:00,
2013-02-28 01:36:00,23.8,10.0,29.88,ENE,78,4.0,4.0,55,0.00,,,0.00,LWC V2.10 B1813,2013-02-28 10:36:00,
2013-02-28 01:41:00,23.8,10.0,29.88,ENE,74,4.0,4.0,55,0.00,,,0.00,LWC V2.10 B1813,2013-02-28 10:41:00,
2013-02-28 01:46:00,23.9,10.1,29.88,ENE,74,1.0,2.0,55,0.00,,,0.00,LWC V2.10 B1813,2013-02-28 10:46:00,
2013-02-28 01:51:00,23.9,10.1,29.88,ENE,76,3.0,4.0,55,0.00,,,0.00,LWC V2.10 B1813,2013-02-28 10:51:00,
2013-02-28 01:56:00,24.1,10.3,29.88,ENE,72,2.0,4.0,55,0.00,,,0.00,LWC V2.10 B1813,2013-02-28 10:56:00,
2013-02-28 02:01:00,24.2,10.4,29.88,ENE,73,2.0,3.0,55,0.00,,,0.00,LWC V2.10 B1813,2013-02-28 11:01:00,
2013-02-28 02:06:00,24.1,10.3,29.88,ENE,72,2.0,3.0,55,0.00,,,0.00,LWC V2.10 B1813,2013-02-28 11:06:00,
2013-02-28 02:11:00,23.9,10.1,29.88,ENE,72,1.0,2.0,55,0.00,,,0.00,LWC V2.10 B1813,2013-02-28 11:11:00,
2013-02-28 02:16:00,23.7,10.3,29.88,ENE,72,0.0,1.0,56,0.00,,,0.00,LWC V2.10 B1813,2013-02-28 11:16:00,
2013-02-28 02:21:00,23.4,10.0,29.89,ENE,72,2.0,4.0,56,0.00,,,0.00,LWC V2.10 B1813,2013-02-28 11:21:00,
2013-02-28 02:26:00,23.1,9.8,29.88,ENE,72,1.0,3.0,56,0.00,,,0.00,LWC V2.10 B1813,2013-02-28 11:26:00,
2013-02-28 02:31:00,22.9,9.6,29.88,ENE,72,2.0,3.0,56,0.00,,,0.00,LWC V2.10 B1813,2013-02-28 11:31:00,
2013-02-28 02:36:00,23.0,9.7,29.89,ENE,72,3.0,4.0,56,0.00,,,0.00,LWC V2.10 B1813,2013-02-28 11:36:00,
2013-02-28 02:41:00,23.5,10.1,29.88,ENE,76,2.0,3.0,56,0.00,,,0.00,LWC V2.10 B1813,2013-02-28 11:41:00,
2013-02-28 02:46:00,23.9,10.1,29.88,ENE,77,0.0,1.0,55,0.00,,,0.00,LWC V2.10 B1813,2013-02-28 11:46:00,
2013-02-28 02:51:00,23.9,10.1,29.88,ENE,77,1.0,3.0,55,0.00,,,0.00,LWC V2.10 B1813,2013-02-28 11:51:00,
2013-02-28 02:56:00,23.9,9.7,29.88,ENE,78,0.0,3.0,54,0.00,,,0.00,LWC V2.10 B1813,2013-02-28 11:56:00,
2013-02-28 03:01:00,24.1,9.9,29.88,ENE,78,1.0,3.0,54,0.00,,,0.00,LWC V2.10 B1813,2013-02-28 12:01:00,
2013-02-28 03:06:00,24.4,10.2,29.88,East,80,2.0,5.0,54,0.00,,,0.00,LWC V2.10 B1813,2013-02-28 12:06:00,
2013-02-28 03:11:00,24.6,9.9,29.88,East,80,0.0,2.0,53,0.00,,,0.00,LWC V2.10 B1813,2013-02-28 12:11:00,
2013-02-28 03:16:00,24.4,9.8,29.88,East,80,1.0,5.0,53,0.00,,,0.00,LWC V2.10 B1813,2013-02-28 12:16:00,
2013-02-28 03:21:00,24.2,10.0,29.88,East,81,1.0,2.0,54,0.00,,,0.00,LWC V2.10 B1813,2013-02-28 12:21:00,
2013-02-28 03:26:00,23.8,10.0,29.88,East,81,0.0,2.0,55,0.00,,,0.00,LWC V2.10 B1813,2013-02-28 12:26:00,
2013-02-28 03:31:00,23.3,10.0,29.88,East,80,1.0,2.0,56,0.00,,,0.00,LWC V2.10 B1813,2013-02-28 12:31:00,
2013-02-28 03:36:00,22.9,9.6,29.88,East,80,1.0,3.0,56,0.00,,,0.00,LWC V2.10 B1813,2013-02-28 12:36:00,
2013-02-28 03:41:00,22.5,9.2,29.88,East,81,0.0,1.0,56,0.00,,,0.00,LWC V2.10 B1813,2013-02-28 12:41:00,
2013-02-28 03:46:00,22.0,9.1,29.88,East,80,3.0,3.0,57,0.00,,,0.00,LWC V2.10 B1813,2013-02-28 12:46:00,
2013-02-28 03:51:00,22.0,9.1,29.88,East,79,3.0,5.0,57,0.00,,,0.00,LWC V2.10 B1813,2013-02-28 12:51:00,
2013-02-28 03:56:00,22.5,9.6,29.88,East,84,2.0,3.0,57,0.00,,,0.00,LWC V2.10 B1813,2013-02-28 12:56:00,
2013-02-28 04:01:00,22.7,9.4,29.88,East,85,2.0,3.0,56,0.00,,,0.00,LWC V2.10 B1813,2013-02-28 13:01:00,
2013-02-28 04:06:00,22.5,9.2,29.88,East,84,1.0,3.0,56,0.00,,,0.00,LWC V2.10 B1813,2013-02-28 13:06:00,
2013-02-28 04:11:00,22.4,9.5,29.88,East,84,2.0,5.0,57,0.00,,,0.00,LWC V2.10 B1813,2013-02-28 13:11:00,
2013-02-28 04:16:00,22.3,9.4,29.88,East,83,3.0,3.0,57,0.00,,,0.00,LWC V2.10 B1813,2013-02-28 13:16:00,
2013-02-28 04:21:00,22.5,9.6,29.88,East,83,2.0,2.0,57,0.00,,,0.00,LWC V2.10 B1813,2013-02-28 13:21:00,
2013-02-28 04:26:00,22.5,9.6,29.88,East,79,1.0,4.0,57,0.00,,,0.00,LWC V2.10 B1813,2013-02-28 13:26:00,
2013-02-28 04:31:00,22.5,9.6,29.88,ENE,71,2.0,4.0,57,0.00,,,0.00,LWC V2.10 B1813,2013-02-28 13:31:00,
2013-02-28 04:36:00,22.8,9.5,29.88,ENE,70,2.0,4.0,56,0.00,,,0.00,LWC V2.10 B1813,2013-02-28 13:36:00,
2013-02-28 04:41:00,23.1,9.4,29.87,ENE,67,2.0,3.0,55,0.00,,,0.00,LWC V2.10 B1813,2013-02-28 13:41:00,
2013-02-28 04:46:00,23.0,9.3,29.88,ENE,67,3.0,3.0,55,0.00,,,0.00,LWC V2.10 B1813,2013-02-28 13:46:00,
2013-02-28 04:51:00,23.0,9.3,29.88,ENE,78,2.0,5.0,55,0.00,,,0.00,LWC V2.10 B1813,2013-02-28 13:51:00,
2013-02-28 04:56:00,23.4,9.2,29.88,ENE,68,2.0,3.0,54,0.00,,,0.00,LWC V2.10 B1813,2013-02-28 13:56:00,
2013-02-28 05:01:00,23.4,9.2,29.88,ENE,68,2.0,4.0,54,0.00,,,0.00,LWC V2.10 B1813,2013-02-28 14:01:00,
2013-02-28 05:06:00,23.4,9.2,29.88,NE,56,2.0,4.0,54,0.00,,,0.00,LWC V2.10 B1813,2013-02-28 14:06:00,
2013-02-28 05:11:00,23.5,9.3,29.88,ENE,68,1.0,5.0,54,0.00,,,0.00,LWC V2.10 B1813,2013-02-28 14:11:00,
2013-02-28 05:16:00,23.6,9.4,29.88,NE,49,5.0,6.0,54,0.00,,,0.00,LWC V2.10 B1813,2013-02-28 14:16:00,
2013-02-28 05:21:00,23.6,9.0,29.87,ENE,68,2.0,5.0,53,0.00,,,0.00,LWC V2.10 B1813,2013-02-28 14:21:00,
2013-02-28 05:26:00,23.8,9.6,29.87,NE,40,4.0,7.0,54,0.00,,,0.00,LWC V2.10 B1813,2013-02-28 14:26:00,
2013-02-28 05:31:00,24.0,9.4,29.88,ENE,67,3.0,4.0,53,0.00,,,0.00,LWC V2.10 B1813,2013-02-28 14:31:00,
2013-02-28 05:36:00,24.2,9.6,29.88,ENE,68,3.0,4.0,53,0.00,,,0.00,LWC V2.10 B1813,2013-02-28 14:36:00,
2013-02-28 05:41:00,24.2,9.6,29.88,ENE,61,4.0,5.0,53,0.00,,,0.00,LWC V2.10 B1813,2013-02-28 14:41:00,
2013-02-28 05:46:00,24.1,9.5,29.88,ENE,63,3.0,4.0,53,0.00,,,0.00,LWC V2.10 B1813,2013-02-28 14:46:00,
2013-02-28 05:51:00,24.0,9.4,29.88,ENE,61,2.0,4.0,53,0.00,,,0.00,LWC V2.10 B1813,2013-02-28 14:51:00,
2013-02-28 05:56:00,23.9,9.3,29.88,ENE,59,4.0,4.0,53,0.00,,,0.00,LWC V2.10 B1813,2013-02-28 14:56:00,
2013-02-28 06:01:00,23.8,9.2,29.88,ENE,61,3.0,5.0,53,0.00,,,0.00,LWC V2.10 B1813,2013-02-28 15:01:00,
2013-02-28 06:06:00,23.8,9.2,29.88,ENE,61,2.0,3.0,53,0.00,,,0.00,LWC V2.10 B1813,2013-02-28 15:06:00,
2013-02-28 06:11:00,23.7,9.1,29.88,ENE,62,4.0,5.0,53,0.00,,,0.00,LWC V2.10 B1813,2013-02-28 15:11:00,
2013-02-28 06:16:00,23.6,9.0,29.88,ENE,71,4.0,4.0,53,0.00,,,0.00,LWC V2.10 B1813,2013-02-28 15:16:00,
2013-02-28 06:21:00,23.6,9.0,29.88,ENE,63,4.0,5.0,53,0.00,,,0.00,LWC V2.10 B1813,2013-02-28 15:21:00,
2013-02-28 06:26:00,23.6,9.0,29.88,NE,56,1.0,4.0,53,0.00,,,0.00,LWC V2.10 B1813,2013-02-28 15:26:00,
2013-02-28 06:31:00,23.5,9.3,29.88,NE,52,3.0,4.0,54,0.00,,,0.00,LWC V2.10 B1813,2013-02-28 15:31:00,
2013-02-28 06:36:00,23.3,9.1,29.88,ENE,59,2.0,3.0,54,0.00,,,0.00,LWC V2.10 B1813,2013-02-28 15:36:00,
2013-02-28 06:41:00,23.1,9.0,29.88,ENE,69,0.0,4.0,54,0.00,,,0.00,LWC V2.10 B1813,2013-02-28 15:41:00,
2013-02-28 06:46:00,22.9,8.8,29.88,ENE,71,0.0,2.0,54,0.00,,,0.00,LWC V2.10 B1813,2013-02-28 15:46:00,
2013-02-28 06:51:00,22.7,9.0,29.88,ENE,71,0.0,1.0,55,0.00,,,0.00,LWC V2.10 B1813,2013-02-28 15:51:00,
2013-02-28 06:56:00,22.5,9.2,29.88,ENE,71,0.0,0.0,56,0.00,,,0.00,LWC V2.10 B1813,2013-02-28 15:56:00,
2013-02-28 07:01:00,22.2,8.5,29.88,ENE,71,0.0,0.0,55,0.00,,,0.00,LWC V2.10 B1813,2013-02-28 16:01:00,
2013-02-28 07:06:00,21.9,8.2,29.88,ENE,72,2.0,2.0,55,0.00,,,0.00,LWC V2.10 B1813,2013-02-28 16:06:00,
2013-02-28 07:11:00,21.8,8.9,29.88,East,94,0.0,1.0,57,0.00,,,0.00,LWC V2.10 B1813,2013-02-28 16:11:00,
2013-02-28 07:16:00,21.6,9.1,29.88,East,94,0.0,2.0,58,0.00,,,0.00,LWC V2.10 B1813,2013-02-28 16:16:00,
2013-02-28 07:21:00,21.2,8.4,29.88,East,94,0.0,0.0,57,0.00,,,0.00,LWC V2.10 B1813,2013-02-28 16:21:00,
2013-02-28 07:26:00,20.8,8.0,29.88,East,90,2.0,6.0,57,0.00,,,0.00,LWC V2.10 B1813,2013-02-28 16:26:00,
2013-02-28 07:31:00,20.7,7.9,29.88,ESE,103,0.0,4.0,57,0.00,,,0.00,LWC V2.10 B1813,2013-02-28 16:31:00,
2013-02-28 07:36:00,20.7,7.9,29.88,ESE,104,2.0,3.0,57,0.00,,,0.00,LWC V2.10 B1813,2013-02-28 16:36:00,
2013-02-28 07:41:00,20.7,7.9,29.88,ESE,105,1.0,2.0,57,0.00,,,0.00,LWC V2.10 B1813,2013-02-28 16:41:00,
2013-02-28 07:46:00,20.7,7.9,29.88,ESE,103,2.0,3.0,57,0.00,,,0.00,LWC V2.10 B1813,2013-02-28 16:46:00,
2013-02-28 07:51:00,20.6,8.2,29.88,ESE,103,1.0,3.0,58,0.00,,,0.00,LWC V2.10 B1813,2013-02-28 16:51:00,
2013-02-28 07:56:00,20.5,7.7,29.89,ESE,104,0.0,1.0,57,0.00,,,0.00,LWC V2.10 B1813,2013-02-28 16:56:00,
2013-02-28 08:01:00,20.4,8.0,29.89,ESE,104,2.0,2.0,58,0.00,,,0.00,LWC V2.10 B1813,2013-02-28 17:01:00,
2013-02-28 08:06:00,20.2,7.8,29.89,ESE,103,3.0,4.0,58,0.00,,,0.00,LWC V2.10 B1813,2013-02-28 17:06:00,
2013-02-28 08:11:00,20.1,7.7,29.89,ESE,103,2.0,3.0,58,0.00,,,0.00,LWC V2.10 B1813,2013-02-28 17:11:00,
2013-02-28 08:16:00,20.1,7.7,29.89,ESE,104,1.0,2.0,58,0.00,,,0.00,LWC V2.10 B1813,2013-02-28 17:16:00,
2013-02-28 08:21:00,20.2,7.8,29.89,ESE,103,0.0,1.0,58,0.00,,,0.00,LWC V2.10 B1813,2013-02-28 17:21:00,
2013-02-28 08:26:00,20.2,8.2,29.89,ESE,103,0.0,0.0,59,0.00,,,0.00,LWC V2.10 B1813,2013-02-28 17:26:00,
2013-02-28 08:31:00,20.2,8.2,29.89,ESE,104,1.0,1.0,59,0.00,,,0.00,LWC V2.10 B1813,2013-02-28 17:31:00,
2013-02-28 08:36:00,20.0,7.6,29.89,ESE,103,0.0,1.0,58,0.00,,,0.00,LWC V2.10 B1813,2013-02-28 17:36:00,
2013-02-28 08:41:00,20.0,8.0,29.89,ESE,103,1.0,1.0,59,0.00,,,0.00,LWC V2.10 B1813,2013-02-28 17:41:00,
2013-02-28 08:46:00,20.2,7.8,29.89,ESE,103,1.0,2.0,58,0.00,,,0.00,LWC V2.10 B1813,2013-02-28 17:46:00,
2013-02-28 08:51:00,20.3,8.7,29.89,East,101,0.0,3.0,60,0.00,,,0.00,LWC V2.10 B1813,2013-02-28 17:51:00,
2013-02-28 08:56:00,20.4,8.8,29.89,East,101,2.0,3.0,60,0.00,,,0.00,LWC V2.10 B1813,2013-02-28 17:56:00,
2013-02-28 09:01:00,20.7,8.3,29.89,East,100,2.0,2.0,58,0.00,,,0.00,LWC V2.10 B1813,2013-02-28 18:01:00,
2013-02-28 09:06:00,20.9,8.1,29.89,East,98,2.0,3.0,57,0.00,,,0.00,LWC V2.10 B1813,2013-02-28 18:06:00,
2013-02-28 09:11:00,21.3,8.9,29.89,ENE,63,2.0,3.0,58,0.00,,,0.00,LWC V2.10 B1813,2013-02-28 18:11:00,
2013-02-28 09:16:00,21.6,9.1,29.89,ENE,63,1.0,2.0,58,0.00,,,0.00,LWC V2.10 B1813,2013-02-28 18:16:00,
2013-02-28 09:21:00,21.7,8.8,29.89,ENE,63,2.0,3.0,57,0.00,,,0.00,LWC V2.10 B1813,2013-02-28 18:21:00,
2013-02-28 09:26:00,21.9,9.0,29.89,ENE,63,2.0,2.0,57,0.00,,,0.00,LWC V2.10 B1813,2013-02-28 18:26:00,
2013-02-28 09:31:00,22.1,9.2,29.89,ENE,63,1.0,2.0,57,0.00,,,0.00,LWC V2.10 B1813,2013-02-28 18:31:00,
2013-02-28 09:36:00,22.4,9.1,29.89,ENE,63,2.0,3.0,56,0.00,,,0.00,LWC V2.10 B1813,2013-02-28 18:36:00,
2013-02-28 09:41:00,22.9,8.8,29.88,ENE,63,0.0,3.0,54,0.00,,,0.00,LWC V2.10 B1813,2013-02-28 18:41:00,
2013-02-28 09:46:00,23.6,9.0,29.88,ENE,61,3.0,5.0,53,0.00,,,0.00,LWC V2.10 B1813,2013-02-28 18:46:00,
2013-02-28 09:51:00,24.4,8.9,29.88,ENE,75,2.0,3.0,51,0.00,,,0.00,LWC V2.10 B1813,2013-02-28 18:51:00,
2013-02-28 09:56:00,25.0,9.0,29.88,ENE,76,2.0,4.0,50,0.00,,,0.00,LWC V2.10 B1813,2013-02-28 18:56:00,
2013-02-28 10:01:00,25.6,9.6,29.89,ENE,76,0.0,3.0,50,0.00,,,0.00,LWC V2.10 B1813,2013-02-28 19:01:00,
2013-02-28 10:06:00,26.2,10.1,29.89,ENE,76,2.0,2.0,50,0.00,,,0.00,LWC V2.10 B1813,2013-02-28 19:06:00,
2013-02-28 10:11:00,26.8,10.2,29.89,ENE,74,2.0,2.0,49,0.00,,,0.00,LWC V2.10 B1813,2013-02-28 19:11:00,
2013-02-28 10:16:00,27.2,10.1,29.89,ENE,74,2.0,3.0,48,0.00,,,0.00,LWC V2.10 B1813,2013-02-28 19:16:00,
2013-02-28 10:21:00,27.5,9.9,29.88,ENE,75,2.0,3.0,47,0.00,,,0.00,LWC V2.10 B1813,2013-02-28 19:21:00,
2013-02-28 10:26:00,27.6,10.0,29.89,ENE,75,1.0,2.0,47,0.00,,,0.00,LWC V2.10 B1813,2013-02-28 19:26:00,
2013-02-28 10:31:00,27.6,10.0,29.88,ENE,74,2.0,3.0,47,0.00,,,0.00,LWC V2.10 B1813,2013-02-28 19:31:00,
2013-02-28 10:36:00,27.7,10.1,29.89,ENE,74,1.0,2.0,47,0.00,,,0.00,LWC V2.10 B1813,2013-02-28 19:36:00,
2013-02-28 10:41:00,27.8,9.7,29.89,ENE,75,0.0,1.0,46,0.00,,,0.00,LWC V2.10 B1813,2013-02-28 19:41:00,
2013-02-28 10:46:00,27.9,9.8,29.89,ENE,74,0.0,1.0,46,0.00,,,0.00,LWC V2.10 B1813,2013-02-28 19:46:00,
2013-02-28 10:51:00,28.1,11.0,29.89,ENE,75,0.0,1.0,48,0.00,,,0.00,LWC V2.10 B1813,2013-02-28 19:51:00,
2013-02-28 10:56:00,28.1,11.0,29.88,ENE,75,0.0,1.0,48,0.00,,,0.00,LWC V2.10 B1813,2013-02-28 19:56:00,
2013-02-28 11:01:00,28.2,11.1,29.88,ENE,75,0.0,1.0,48,0.00,,,0.00,LWC V2.10 B1813,2013-02-28 20:01:00,
2013-02-28 11:06:00,28.3,11.6,29.88,ENE,74,0.0,0.0,49,0.00,,,0.00,LWC V2.10 B1813,2013-02-28 20:06:00,
2013-02-28 11:11:00,28.3,11.2,29.88,ENE,74,0.0,1.0,48,0.00,,,0.00,LWC V2.10 B1813,2013-02-28 20:11:00,
2013-02-28 11:16:00,28.3,10.2,29.88,ENE,75,2.0,3.0,46,0.00,,,0.00,LWC V2.10 B1813,2013-02-28 20:16:00,
2013-02-28 11:21:00,28.7,10.6,29.88,ENE,63,3.0,3.0,46,0.00,,,0.00,LWC V2.10 B1813,2013-02-28 20:21:00,
2013-02-28 11:26:00,29.0,10.8,29.88,NE,49,2.0,4.0,46,0.00,,,0.00,LWC V2.10 B1813,2013-02-28 20:26:00,
2013-02-28 11:31:00,29.4,10.7,29.88,NE,51,1.0,3.0,45,0.00,,,0.00,LWC V2.10 B1813,2013-02-28 20:31:00,
2013-02-28 11:36:00,30.1,11.4,29.88,NE,51,2.0,2.0,45,0.00,,,0.00,LWC V2.10 B1813,2013-02-28 20:36:00,
2013-02-28 11:41:00,30.8,11.0,29.88,NE,50,0.0,2.0,43,0.00,,,0.00,LWC V2.10 B1813,2013-02-28 20:41:00,
2013-02-28 11:46:00,31.4,11.5,29.88,NE,49,0.0,2.0,43,0.00,,,0.00,LWC V2.10 B1813,2013-02-28 20:46:00,
2013-02-28 11:51:00,31.8,11.9,29.88,NE,49,3.0,4.0,43,0.00,,,0.00,LWC V2.10 B1813,2013-02-28 20:51:00,
2013-02-28 11:56:00,31.9,12.5,29.87,NNE,32,4.0,5.0,44,0.00,,,0.00,LWC V2.10 B1813,2013-02-28 20:56:00,
2013-02-28 12:01:00,31.9,11.4,29.87,NE,56,1.0,4.0,42,0.00,,,0.00,LWC V2.10 B1813,2013-02-28 21:01:00,
2013-02-28 12:06:00,32.1,11.6,29.88,East,82,1.0,5.0,42,0.00,,,0.00,LWC V2.10 B1813,2013-02-28 21:06:00,
2013-02-28 12:11:00,32.2,12.8,29.87,East,82,0.0,3.0,44,0.00,,,0.00,LWC V2.10 B1813,2013-02-28 21:11:00,
2013-02-28 12:16:00,32.5,14.0,29.88,East,82,0.0,1.0,46,0.00,,,0.00,LWC V2.10 B1813,2013-02-28 21:16:00,
2013-02-28 12:21:00,32.5,12.5,29.88,NE,51,3.0,4.0,43,0.00,,,0.00,LWC V2.10 B1813,2013-02-28 21:21:00,
2013-02-28 12:26:00,32.6,13.1,29.87,NE,53,1.0,3.0,44,0.00,,,0.00,LWC V2.10 B1813,2013-02-28 21:26:00,
2013-02-28 12:31:00,32.6,13.1,29.87,NE,44,5.0,5.0,44,0.00,,,0.00,LWC V2.10 B1813,2013-02-28 21:31:00,
2013-02-28 12:36:00,32.5,13.0,29.87,ENE,63,3.0,6.0,44,0.00,,,0.00,LWC V2.10 B1813,2013-02-28 21:36:00,
2013-02-28 12:41:00,32.4,12.9,29.88,ENE,74,1.0,3.0,44,0.00,,,0.00,LWC V2.10 B1813,2013-02-28 21:41:00,
2013-02-28 12:46:00,32.5,13.0,29.88,ENE,62,3.0,4.0,44,0.00,,,0.00,LWC V2.10 B1813,2013-02-28 21:46:00,
2013-02-28 12:51:00,32.5,13.0,29.88,ENE,63,3.0,4.0,44,0.00,,,0.00,LWC V2.10 B1813,2013-02-28 21:51:00,
2013-02-28 12:56:00,32.3,12.9,29.88,East,83,1.0,3.0,44,0.00,,,0.01,LWC V2.10 B1813,2013-02-28 21:56:00,
2013-02-28 13:01:00,32.3,13.4,29.88,East,92,3.0,5.0,45,0.00,,,0.01,LWC V2.10 B1813,2013-02-28 22:01:00,
2013-02-28 13:06:00,32.3,12.9,29.88,East,92,1.0,5.0,44,0.00,,,0.01,LWC V2.10 B1813,2013-02-28 22:06:00,
2013-02-28 13:11:00,32.3,12.3,29.87,East,92,2.0,3.0,43,0.00,,,0.01,LWC V2.10 B1813,2013-02-28 22:11:00,
2013-02-28 13:16:00,32.2,12.2,29.87,East,94,1.0,5.0,43,0.00,,,0.01,LWC V2.10 B1813,2013-02-28 22:16:00,
2013-02-28 13:21:00,32.1,11.6,29.87,ESE,102,1.0,5.0,42,0.00,,,0.01,LWC V2.10 B1813,2013-02-28 22:21:00,
2013-02-28 13:26:00,32.2,11.2,29.87,ESE,121,0.0,4.0,41,0.00,,,0.01,LWC V2.10 B1813,2013-02-28 22:26:00,
2013-02-28 13:31:00,32.3,11.8,29.87,ESE,121,0.0,2.0,42,0.00,,,0.01,LWC V2.10 B1813,2013-02-28 22:31:00,
2013-02-28 13:36:00,32.2,11.7,29.87,ESE,113,2.0,6.0,42,0.00,,,0.01,LWC V2.10 B1813,2013-02-28 22:36:00,
2013-02-28 13:41:00,32.1,12.2,29.87,ESE,107,4.0,5.0,43,0.00,,,0.01,LWC V2.10 B1813,2013-02-28 22:41:00,
2013-02-28 13:46:00,32.0,12.1,29.86,ESE,106,4.0,5.0,43,0.00,,,0.01,LWC V2.10 B1813,2013-02-28 22:46:00,
2013-02-28 13:51:00,31.9,11.4,29.86,East,94,2.0,2.0,42,0.00,,,0.01,LWC V2.10 B1813,2013-02-28 22:51:00,
2013-02-28 13:56:00,32.0,11.0,29.86,East,94,0.0,1.0,41,0.00,,,0.01,LWC V2.10 B1813,2013-02-28 22:56:00,
2013-02-28 14:01:00,32.1,11.1,29.86,East,99,1.0,3.0,41,0.00,,,0.01,LWC V2.10 B1813,2013-02-28 23:01:00,
2013-02-28 14:06:00,32.3,11.3,29.86,East,94,5.0,5.0,41,0.00,,,0.01,LWC V2.10 B1813,2013-02-28 23:06:00,
2013-02-28 14:11:00,32.4,11.9,29.86,ESE,116,2.0,4.0,42,0.00,,,0.01,LWC V2.10 B1813,2013-02-28 23:11:00,
2013-02-28 14:16:00,32.3,11.3,29.86,ESE,119,4.0,7.0,41,0.00,,,0.01,LWC V2.10 B1813,2013-02-28 23:16:00,
2013-02-28 14:21:00,32.3,11.3,29.86,ESE,115,3.0,4.0,41,0.00,,,0.01,LWC V2.10 B1813,2013-02-28 23:21:00,
2013-02-28 14:26:00,32.2,11.7,29.86,ESE,121,4.0,7.0,42,0.00,,,0.01,LWC V2.10 B1813,2013-02-28 23:26:00,
2013-02-28 14:31:00,31.9,12.0,29.86,East,96,3.0,5.0,43,0.00,,,0.01,LWC V2.10 B1813,2013-02-28 23:31:00,
2013-02-28 14:36:00,31.7,12.3,29.86,SE,133,2.0,3.0,44,0.00,,,0.01,LWC V2.10 B1813,2013-02-28 23:36:00,
2013-02-28 14:41:00,31.5,12.6,29.86,SE,132,0.0,3.0,45,0.00,,,0.01,LWC V2.10 B1813,2013-02-28 23:41:00,
2013-02-28 14:46:00,31.6,11.2,29.86,SE,133,0.0,0.0,42,0.00,,,0.01,LWC V2.10 B1813,2013-02-28 23:46:00,
2013-02-28 14:51:00,31.7,11.3,29.86,SE,133,0.0,0.0,42,0.00,,,0.01,LWC V2.10 B1813,2013-02-28 23:51:00,
2013-02-28 14:56:00,31.8,11.9,29.86,SE,133,0.0,1.0,43,0.00,,,0.01,LWC V2.10 B1813,2013-02-28 23:56:00,
2013-02-28 15:01:00,31.9,12.0,29.86,SE,132,0.0,2.0,43,0.00,,,0.01,LWC V2.10 B1813,2013-03-01 00:01:00,
2013-02-28 15:06:00,31.9,12.0,29.86,SE,132,0.0,0.0,43,0.00,,,0.01,LWC V2.10 B1813,2013-03-01 00:06:00,
2013-02-28 15:11:00,32.0,11.5,29.85,SE,132,0.0,0.0,42,0.00,,,0.01,LWC V2.10 B1813,2013-03-01 00:11:00,
2013-02-28 15:16:00,32.1,11.6,29.86,SE,133,2.0,3.0,42,0.00,,,0.01,LWC V2.10 B1813,2013-03-01 00:16:00,
2013-02-28 15:21:00,32.4,11.4,29.86,SE,133,0.0,1.0,41,0.00,,,0.01,LWC V2.10 B1813,2013-03-01 00:21:00,
2013-02-28 15:26:00,32.4,11.4,29.86,SE,134,1.0,3.0,41,0.00,,,0.01,LWC V2.10 B1813,2013-03-01 00:26:00,
2013-02-28 15:31:00,32.3,11.8,29.85,SE,134,0.0,2.0,42,0.00,,,0.01,LWC V2.10 B1813,2013-03-01 00:31:00,
2013-02-28 15:36:00,32.3,11.8,29.85,SE,134,0.0,1.0,42,0.00,,,0.01,LWC V2.10 B1813,2013-03-01 00:36:00,
2013-02-28 15:41:00,32.2,11.2,29.85,SE,134,0.0,0.0,41,0.00,,,0.01,LWC V2.10 B1813,2013-03-01 00:41:00,
2013-02-28 15:46:00,32.3,11.3,29.85,SE,134,2.0,3.0,41,0.00,,,0.01,LWC V2.10 B1813,2013-03-01 00:46:00,
2013-02-28 15:51:00,32.3,12.3,29.86,SE,136,1.0,2.0,43,0.00,,,0.02,LWC V2.10 B1813,2013-03-01 00:51:00,
2013-02-28 15:56:00,32.2,12.2,29.86,SSE,152,0.0,4.0,43,0.00,,,0.02,LWC V2.10 B1813,2013-03-01 00:56:00,
2013-02-28 16:01:00,32.0,12.6,29.86,SSE,153,0.0,3.0,44,0.00,,,0.02,LWC V2.10 B1813,2013-03-01 01:01:00,
2013-02-28 16:06:00,31.9,13.0,29.86,SSE,157,0.0,3.0,45,0.00,,,0.02,LWC V2.10 B1813,2013-03-01 01:06:00,
2013-02-28 16:11:00,31.7,12.3,29.86,SSE,158,0.0,3.0,44,0.00,,,0.02,LWC V2.10 B1813,2013-03-01 01:11:00,
2013-02-28 16:16:00,31.5,13.1,29.86,South,171,2.0,3.0,46,0.00,,,0.02,LWC V2.10 B1813,2013-03-01 01:16:00,
2013-02-28 16:21:00,31.4,12.5,29.86,South,171,0.0,2.0,45,0.00,,,0.02,LWC V2.10 B1813,2013-03-01 01:21:00,
2013-02-28 16:26:00,31.1,12.3,29.86,South,172,0.0,1.0,45,0.00,,,0.02,LWC V2.10 B1813,2013-03-01 01:26:00,
2013-02-28 16:31:00,31.0,11.7,29.86,South,171,0.0,1.0,44,0.00,,,0.02,LWC V2.10 B1813,2013-03-01 01:31:00,
2013-02-28 16:36:00,30.8,12.5,29.86,South,171,0.0,2.0,46,0.00,,,0.02,LWC V2.10 B1813,2013-03-01 01:36:00,
2013-02-28 16:41:00,30.6,12.8,29.86,South,171,0.0,0.0,47,0.00,,,0.02,LWC V2.10 B1813,2013-03-01 01:41:00,
2013-02-28 16:46:00,30.4,13.6,29.86,South,172,1.0,2.0,49,0.00,,,0.02,LWC V2.10 B1813,2013-03-01 01:46:00,
2013-02-28 16:51:00,30.1,12.8,29.86,South,171,0.0,1.0,48,0.00,,,0.02,LWC V2.10 B1813,2013-03-01 01:51:00,
2013-02-28 16:56:00,29.8,12.1,29.86,South,171,0.0,0.0,47,0.00,,,0.02,LWC V2.10 B1813,2013-03-01 01:56:00,
2013-02-28 17:01:00,29.6,12.8,29.86,South,172,0.0,0.0,49,0.00,,,0.02,LWC V2.10 B1813,2013-03-01 02:01:00,
2013-02-28 17:06:00,29.3,12.1,29.86,South,172,0.0,0.0,48,0.00,,,0.02,LWC V2.10 B1813,2013-03-01 02:06:00,
2013-02-28 17:11:00,29.0,11.8,29.86,South,171,0.0,0.0,48,0.00,,,0.02,LWC V2.10 B1813,2013-03-01 02:11:00,
2013-02-28 17:16:00,28.8,11.6,29.86,South,171,0.0,0.0,48,0.00,,,0.02,LWC V2.10 B1813,2013-03-01 02:16:00,
2013-02-28 17:21:00,28.5,11.3,29.86,South,171,0.0,0.0,48,0.00,,,0.02,LWC V2.10 B1813,2013-03-01 02:21:00,
2013-02-28 17:26:00,28.3,11.6,29.86,South,171,0.0,0.0,49,0.00,,,0.02,LWC V2.10 B1813,2013-03-01 02:26:00,
2013-02-28 17:31:00,28.0,10.9,29.86,South,171,0.0,0.0,48,0.00,,,0.02,LWC V2.10 B1813,2013-03-01 02:31:00,
2013-02-28 17:36:00,27.8,11.6,29.86,South,172,0.0,0.0,50,0.00,,,0.02,LWC V2.10 B1813,2013-03-01 02:36:00,
2013-02-28 17:41:00,27.6,11.4,29.87,South,171,0.0,0.0,50,0.00,,,0.02,LWC V2.10 B1813,2013-03-01 02:41:00,
2013-02-28 17:46:00,27.4,11.7,29.86,South,171,0.0,0.0,51,0.00,,,0.02,LWC V2.10 B1813,2013-03-01 02:46:00,
2013-02-28 17:51:00,27.1,10.5,29.86,South,172,0.0,0.0,49,0.00,,,0.02,LWC V2.10 B1813,2013-03-01 02:51:00,
2013-02-28 17:56:00,27.0,10.4,29.87,South,171,0.0,0.0,49,0.00,,,0.02,LWC V2.10 B1813,2013-03-01 02:56:00,
2013-02-28 18:01:00,26.8,10.2,29.87,South,171,0.0,0.0,49,0.00,,,0.02,LWC V2.10 B1813,2013-03-01 03:01:00,
2013-02-28 18:06:00,26.5,10.4,29.87,SSE,150,2.0,2.0,50,0.00,,,0.02,LWC V2.10 B1813,2013-03-01 03:06:00,
2013-02-28 18:11:00,26.2,10.6,29.87,SSE,148,1.0,2.0,51,0.00,,,0.02,LWC V2.10 B1813,2013-03-01 03:11:00,
2013-02-28 18:16:00,25.9,11.6,29.87,SSE,147,1.0,2.0,54,0.00,,,0.02,LWC V2.10 B1813,2013-03-01 03:16:00,
2013-02-28 18:21:00,25.8,11.1,29.87,SE,146,2.0,2.0,53,0.00,,,0.02,LWC V2.10 B1813,2013-03-01 03:21:00,
2013-02-28 18:26:00,25.6,11.3,29.87,SE,146,1.0,2.0,54,0.00,,,0.02,LWC V2.10 B1813,2013-03-01 03:26:00,
2013-02-28 18:31:00,25.5,11.2,29.88,SSE,147,1.0,2.0,54,0.00,,,0.02,LWC V2.10 B1813,2013-03-01 03:31:00,
2013-02-28 18:36:00,25.3,11.8,29.88,SSE,148,1.0,2.0,56,0.00,,,0.02,LWC V2.10 B1813,2013-03-01 03:36:00,
2013-02-28 18:41:00,25.0,11.5,29.88,SE,146,0.0,1.0,56,0.00,,,0.02,LWC V2.10 B1813,2013-03-01 03:41:00,
2013-02-28 18:46:00,24.7,11.7,29.88,SSE,148,0.0,0.0,57,0.00,,,0.02,LWC V2.10 B1813,2013-03-01 03:46:00,
2013-02-28 18:51:00,24.4,11.8,29.88,SSE,148,0.0,1.0,58,0.00,,,0.02,LWC V2.10 B1813,2013-03-01 03:51:00,
2013-02-28 18:56:00,24.2,12.0,29.88,SSE,148,1.0,2.0,59,0.00,,,0.02,LWC V2.10 B1813,2013-03-01 03:56:00,
2013-02-28 19:01:00,23.9,11.7,29.88,East,95,3.0,5.0,59,0.00,,,0.02,LWC V2.10 B1813,2013-03-01 04:01:00,
2013-02-28 19:06:00,24.0,11.4,29.88,East,95,2.0,3.0,58,0.00,,,0.02,LWC V2.10 B1813,2013-03-01 04:06:00,
2013-02-28 19:11:00,24.2,11.2,29.88,East,95,2.0,3.0,57,0.00,,,0.02,LWC V2.10 B1813,2013-03-01 04:11:00,
2013-02-28 19:16:00,24.3,11.7,29.89,East,95,1.0,3.0,58,0.00,,,0.02,LWC V2.10 B1813,2013-03-01 04:16:00,
2013-02-28 19:21:00,24.4,11.4,29.89,East,95,2.0,2.0,57,0.00,,,0.02,LWC V2.10 B1813,2013-03-01 04:21:00,
2013-02-28 19:26:00,24.2,12.3,29.89,East,96,0.0,0.0,60,0.00,,,0.02,LWC V2.10 B1813,2013-03-01 04:26:00,
2013-02-28 19:31:00,23.9,12.4,29.89,East,95,0.0,1.0,61,0.00,,,0.02,LWC V2.10 B1813,2013-03-01 04:31:00,
2013-02-28 19:36:00,23.7,12.2,29.89,East,95,0.0,0.0,61,0.00,,,0.02,LWC V2.10 B1813,2013-03-01 04:36:00,
2013-02-28 19:41:00,23.4,12.0,29.89,East,96,1.0,1.0,61,0.00,,,0.02,LWC V2.10 B1813,2013-03-01 04:41:00,
2013-02-28 19:46:00,23.3,11.9,29.89,East,96,0.0,0.0,61,0.00,,,0.02,LWC V2.10 B1813,2013-03-01 04:46:00,
2013-02-28 19:51:00,23.0,13.4,29.89,East,96,0.0,0.0,66,0.00,,,0.02,LWC V2.10 B1813,2013-03-01 04:51:00,
2013-02-28 19:56:00,22.6,11.2,29.89,East,96,0.0,0.0,61,0.00,,,0.02,LWC V2.10 B1813,2013-03-01 04:56:00,
2013-02-28 20:00:00,22.4,11.0,29.89,East,96,0.0,1.0,61,0.00,,,0.02,LWC V2.10 B1813,2013-03-01 05:00:00,
2013-02-28 20:05:00,22.2,11.2,29.89,East,95,0.0,1.0,62,0.00,,,0.02,LWC V2.10 B1813,2013-03-01 05:05:00,
2013-02-28 20:10:00,22.1,11.1,29.89,East,95,0.0,1.0,62,0.00,,,0.02,LWC V2.10 B1813,2013-03-01 05:10:00,
2013-02-28 20:15:00,22.0,10.3,29.89,East,96,0.0,0.0,60,0.00,,,0.02,LWC V2.10 B1813,2013-03-01 05:15:00,
2013-02-28 20:20:00,21.9,10.2,29.89,SE,132,2.0,3.0,60,0.00,,,0.02,LWC V2.10 B1813,2013-03-01 05:20:00,
2013-02-28 20:25:00,21.9,10.2,29.90,SE,146,3.0,3.0,60,0.00,,,0.02,LWC V2.10 B1813,2013-03-01 05:25:00,
2013-02-28 20:30:00,21.6,10.3,29.90,SE,146,1.0,2.0,61,0.00,,,0.02,LWC V2.10 B1813,2013-03-01 05:30:00,
2013-02-28 20:35:00,21.4,10.4,29.90,SE,146,1.0,2.0,62,0.00,,,0.02,LWC V2.10 B1813,2013-03-01 05:35:00,
2013-02-28 20:40:00,21.3,10.3,29.90,SE,146,0.0,1.0,62,0.00,,,0.02,LWC V2.10 B1813,2013-03-01 05:40:00,
2013-02-28 20:45:00,21.3,10.3,29.90,SE,145,0.0,0.0,62,0.00,,,0.02,LWC V2.10 B1813,2013-03-01 05:45:00,
2013-02-28 20:50:00,21.1,10.1,29.90,SE,146,1.0,2.0,62,0.00,,,0.02,LWC V2.10 B1813,2013-03-01 05:50:00,
2013-02-28 20:55:00,21.0,10.1,29.90,SE,146,1.0,1.0,62,0.00,,,0.02,LWC V2.10 B1813,2013-03-01 05:55:00,
2013-02-28 21:00:00,20.9,10.0,29.90,SE,145,0.0,1.0,62,0.00,,,0.02,LWC V2.10 B1813,2013-03-01 06:00:00,
2013-02-28 21:05:00,20.8,9.9,29.90,SE,146,0.0,1.0,62,0.00,,,0.02,LWC V2.10 B1813,2013-03-01 06:05:00,
2013-02-28 21:10:00,20.8,9.9,29.91,SE,146,0.0,0.0,62,0.00,,,0.02,LWC V2.10 B1813,2013-03-01 06:10:00,
2013-02-28 21:15:00,20.7,9.4,29.91,SE,146,0.0,0.0,61,0.00,,,0.02,LWC V2.10 B1813,2013-03-01 06:15:00,
2013-02-28 21:20:00,20.4,9.5,29.91,SE,146,0.0,0.0,62,0.00,,,0.02,LWC V2.10 B1813,2013-03-01 06:20:00,
2013-02-28 21:25:00,20.2,9.7,29.91,SE,146,0.0,1.0,63,0.00,,,0.02,LWC V2.10 B1813,2013-03-01 06:25:00,
2013-02-28 21:30:00,19.9,9.4,29.91,SE,146,0.0,1.0,63,0.00,,,0.02,LWC V2.10 B1813,2013-03-01 06:30:00,
2013-02-28 21:35:00,19.7,9.2,29.91,ESE,119,3.0,3.0,63,0.00,,,0.02,LWC V2.10 B1813,2013-03-01 06:35:00,
2013-02-28 21:40:00,19.7,9.2,29.91,ESE,117,2.0,3.0,63,0.00,,,0.02,LWC V2.10 B1813,2013-03-01 06:40:00,
2013-02-28 21:45:00,19.7,9.2,29.92,ESE,117,2.0,2.0,63,0.00,,,0.02,LWC V2.10 B1813,2013-03-01 06:45:00,
2013-02-28 21:50:00,19.7,9.5,29.92,ESE,117,0.0,0.0,64,0.00,,,0.02,LWC V2.10 B1813,2013-03-01 06:50:00,
2013-02-28 21:55:00,19.7,9.9,29.92,ESE,117,2.0,2.0,65,0.00,,,0.02,LWC V2.10 B1813,2013-03-01 06:55:00,
2013-02-28 22:00:00,19.6,10.1,29.92,ESE,117,2.0,2.0,66,0.00,,,0.02,LWC V2.10 B1813,2013-03-01 07:00:00,
2013-02-28 22:05:00,19.3,9.8,29.92,ESE,117,0.0,1.0,66,0.00,,,0.02,LWC V2.10 B1813,2013-03-01 07:05:00,
2013-02-28 22:10:00,19.1,9.3,29.92,ESE,117,0.0,0.0,65,0.00,,,0.02,LWC V2.10 B1813,2013-03-01 07:10:00,
2013-02-28 22:15:00,19.1,9.0,29.92,ESE,117,0.0,0.0,64,0.00,,,0.02,LWC V2.10 B1813,2013-03-01 07:15:00,
2013-02-28 22:20:00,19.3,9.1,29.92,ESE,117,1.0,2.0,64,0.00,,,0.02,LWC V2.10 B1813,2013-03-01 07:20:00,
2013-02-28 22:25:00,19.3,9.1,29.93,ESE,117,2.0,3.0,64,0.00,,,0.02,LWC V2.10 B1813,2013-03-01 07:25:00,
2013-02-28 22:30:00,19.5,9.0,29.93,ESE,117,1.0,2.0,63,0.00,,,0.02,LWC V2.10 B1813,2013-03-01 07:30:00,
2013-02-28 22:35:00,19.6,9.1,29.93,ESE,117,0.0,1.0,63,0.00,,,0.02,LWC V2.10 B1813,2013-03-01 07:35:00,
2013-02-28 22:40:00,19.7,9.5,29.93,ESE,117,0.0,0.0,64,0.00,,,0.02,LWC V2.10 B1813,2013-03-01 07:40:00,
2013-02-28 22:45:00,19.7,8.8,29.93,ESE,117,0.0,2.0,62,0.00,,,0.02,LWC V2.10 B1813,2013-03-01 07:45:00,
2013-02-28 22:50:00,19.4,8.5,29.93,ESE,117,1.0,2.0,62,0.00,,,0.02,LWC V2.10 B1813,2013-03-01 07:50:00,
2013-02-28 22:55:00,19.1,8.6,29.93,ESE,116,0.0,2.0,63,0.00,,,0.02,LWC V2.10 B1813,2013-03-01 07:55:00,
2013-02-28 23:00:00,18.9,8.8,29.93,ESE,116,1.0,2.0,64,0.00,,,0.02,LWC V2.10 B1813,2013-03-01 08:00:00,
2013-02-28 23:05:00,18.9,8.8,29.93,ESE,117,1.0,2.0,64,0.00,,,0.02,LWC V2.10 B1813,2013-03-01 08:05:00,
2013-02-28 23:10:00,18.8,9.0,29.94,ESE,116,0.0,1.0,65,0.00,,,0.02,LWC V2.10 B1813,2013-03-01 08:10:00,
2013-02-28 23:15:00,18.8,8.7,29.94,ESE,117,0.0,1.0,64,0.00,,,0.02,LWC V2.10 B1813,2013-03-01 08:15:00,
2013-02-28 23:20:00,18.5,8.4,29.94,ESE,117,1.0,2.0,64,0.00,,,0.02,LWC V2.10 B1813,2013-03-01 08:20:00,
2013-02-28 23:25:00,18.2,8.1,29.94,ESE,117,0.0,2.0,64,0.00,,,0.02,LWC V2.10 B1813,2013-03-01 08:25:00,
2013-02-28 23:30:00,18.1,8.0,29.95,ESE,117,0.0,0.0,64,0.00,,,0.02,LWC V2.10 B1813,2013-03-01 08:30:00,
2013-02-28 23:35:00,17.9,8.2,29.94,ESE,116,3.0,3.0,65,0.00,,,0.02,LWC V2.10 B1813,2013-03-01 08:35:00,
2013-02-28 23:40:00,18.0,8.2,29.95,ESE,115,1.0,2.0,65,0.00,,,0.02,LWC V2.10 B1813,2013-03-01 08:40:00,
2013-02-28 23:45:00,18.4,8.3,29.95,ESE,116,2.0,2.0,64,0.00,,,0.02,LWC V2.10 B1813,2013-03-01 08:45:00,
2013-02-28 23:50:00,18.4,8.3,29.95,ESE,117,0.0,2.0,64,0.00,,,0.02,LWC V2.10 B1813,2013-03-01 08:50:00,
2013-02-28 23:55:00,18.2,8.4,29.95,ESE,117,0.0,2.0,65,0.00,,,0.02,LWC V2.10 B1813,2013-03-01 08:55:00,